Simultaneous Nadir Overpasses (SNOs) Predictions

Prediction of SNOs between GOES-16 and METOP-B Satellite Orbit:

Table of predicted SNOs for the next 14.0 days since TLE Epoch: 6/25/2022
Index Date Time (GOES-16) GOES-16 Lat,Lon METOP-B Lat,Lon Distance(km) Time Diff (sec)
1 06/25/2022 14:30:38 0.03, -75.21 -0.08, -74.82 44.92 80
2 06/27/2022 02:46:58 -0.02, -75.20 -0.97, -79.41 480.07 80
3 06/28/2022 02:28:59 -0.03, -75.20 0.14, -74.41 89.44 80
4 06/29/2022 14:45:11 0.02, -75.22 0.84, -78.98 428.15 80
5 06/30/2022 14:27:11 0.02, -75.23 -0.27, -73.99 141.61 80
6 07/02/2022 02:46:12 -0.02, -75.23 -0.77, -78.58 382.44 80
7 07/03/2022 02:22:52 -0.02, -75.24 0.34, -73.59 187.70 80
8 07/04/2022 14:43:57 0.02, -75.27 0.63, -78.16 328.70 52
9 07/05/2022 14:21:05 0.02, -75.28 -0.48, -73.16 241.90 80
10 07/07/2022 02:42:45 -0.02, -75.29 -0.55, -77.76 280.86 80
11 07/08/2022 02:19:26 -0.01, -75.31 0.57, -72.77 289.94 80
